Preview of NWS' New Version of Forecast
This preview is not operational and should not be used for support decisions.

Regional Weather Roundup (RWR)

Issued by National Weather Service (NWS)

                            
000
ASUS42 KTBW 181115
RWRFL 
FLORIDA REGIONAL WEATHER ROUNDUP
NATIONAL WEATHER SERVICE TAMPA BAY RUSKIN FL
700 AM EDT THU APR 18 2019

NOTE: "FAIR" INDICATES FEW OR NO CLOUDS BELOW 12,000 FEET WITH NO
SIGNIFICANT WEATHER AND/OR OBSTRUCTIONS TO VISIBILITY.

FLZ001>010-012>015-112-114-115-181200-
PANHANDLE FLORIDA
  
CITY           SKY/WX    TMP DP  RH WIND       PRES   REMARKS
PENSACOLA      FAIR      70  68  93 SE12      29.84F                  
PENSACOLA NAS  MOCLDY    70  68  93 SE13      29.84S                  
MILTON NAS     MOCLDY    65  64  97 SE7       29.85S                  
CRESTVIEW      FAIR      62  61  96 SE3       29.88F                  
DUKE FIELD     FAIR      64  64 100 SE8       29.85F                  
VALPARAISO     FAIR      69  64  85 SE15      29.85F                  
MARY ESTHER    PTCLDY    69  65  88 S15G25    29.84F                  
PANAMA CITY    FAIR      62  59  90 E6        29.89F                  
TYNDALL AFB    FAIR      63  60  92 SE9       29.91F                  
APALACHICOLA   FAIR      69  63  81 SE9       29.93S                  

STATION/POSITION SKY/WX   TEMP    WIND        PRES    WAVE   SWELL
                          AIR SEA DIR/SP/G            HT/PER HT/PER
                          (F)     (DEG/KT/KT) (MB)    (FT/S) (FT/S)
30.1N   87.6W                                   N/A     3/ 5
29.2N   88.2W                     140/ 14/ 16 1010.5F   3/ 5
PANAMA CITY BEAC           69 71  130/ 17/ 19 1012.7F
TOWER C          NOT AVBL

$$
FLZ011-016>038-118-127-128-134-139-239-181200-
NORTH FLORIDA
  
CITY           SKY/WX    TMP DP  RH WIND       PRES   REMARKS
MARIANNA       FAIR      62  58  86 SE5       29.90F                  
TALLAHASSEE    CLOUDY    62  61  96 E7        29.95S                  
PERRY          MOCLDY    63  61  94 SE5       29.99R                  
LIVE OAK       CLOUDY    64  64 100 CALM      29.99R                  
CROSS CITY     FAIR      60  59  96 CALM      29.98R                  
LAKE CITY      FAIR      59  59 100 CALM      30.00R                  
GAINESVILLE    FAIR      61  57  87 SE5       30.01F FOG              
PALATKA        MOCLDY   N/A N/A N/A CALM      30.00S FOG              
MAYPORT NAS    MOCLDY    66  64  93 S5        30.00R                  
JACKSONVILLE   MOCLDY    62  61  96 SE3       29.99S                  
JAX NAS        MOCLDY    71  63  75 S7        30.00S                  
JAX CECIL      PTCLDY    55  54  94 CALM      30.00R                  
FERNANDINA BEA FAIR      67  65  93 S7        30.00S                  
ST AUGUSTINE   FAIR      67  63  87 CALM      30.01R                  
PALM COAST     CLEAR     61  59  94 S6        30.00S                  

STATION/POSITION SKY/WX   TEMP    WIND        PRES    WAVE   SWELL
                          AIR SEA DIR/SP/G            HT/PER HT/PER
                          (F)     (DEG/KT/KT) (MB)    (FT/S) (FT/S)
SHELL POINT      NOT AVBL
KEATON BEACH               63     100/  5/  6 1015.2R
CEDAR KEY                  71     150/ 14/ 15 1015.0F
FERNANDINA                 70 70  140/  3/  6 1016.4R
30.7N   81.3W                 68                N/A     2/ 8
MAYPORT                    67 68  170/  2/  3 1016.0R
31.4N   80.9W              69 67  140/  6/  8 1016.0R   2/ 8   2/ 8
ST AUGUSTINE               69 71  200/  3/  4 1016.1R

$$
FLZ040-043>046-052-053-057-058-063-144-181200-
INTERIOR CENTRAL FLORIDA
  
CITY           SKY/WX    TMP DP  RH WIND       PRES   REMARKS
OCALA          FAIR      60  59  96 CALM      30.00S                  
LEESBURG       CLOUDY    67  63  87 SE5       30.01R                  
SANFORD        FAIR      66  63  90 SE5       30.00S                  
ORLANDO EXEC   FAIR      64  61  90 SE7       29.99F                  
ORLANDO INTL   FAIR      65  61  87 SE6       30.00F                  
KISSIMMEE      FAIR      66  63  90 SE3       30.01S                  
WINTER HAVEN   FAIR      68  63  84 SE6       30.01S                  
LAKELAND       CLEAR     63  61  94 SE3       29.99F                  
BARTOW         FAIR      61  59  94 SE6       29.99S                  
SEBRING        FAIR      61  59  94 NE3       30.01S                  
OKEECHOBEE     FAIR      59  59 100 CALM      30.00S                  

$$
FLZ041-047-054-059-064-141-147-181200-
EAST CENTRAL FLORIDA
  
CITY           SKY/WX    TMP DP  RH WIND       PRES   REMARKS
ORMOND BEACH   PTCLDY    61  61 100 CALM      30.00                   
DAYTONA BEACH  FAIR      66  64  93 S3        30.00S                  
DELAND         FAIR      64  61  88 SE6       30.00R                  
NEW SMYRNA BEA PTCLDY    66  61  82 S5        30.01                   
JFK SPACE CTR  FAIR      68  61  78 SE3       29.99F                  
TITUSVILLE     PTCLDY    64  63  94 CALM      30.00                   
CAPE CANAVERAL FAIR      71  59  65 SE10      29.99F                  
PATRICK AFB    FAIR      74  63  69 SE12      29.99F                  
MELBOURNE      FAIR      73  62  68 SE9       30.00S                  
VERO BEACH     FAIR      71  62  73 E6        30.01R                  
FT PIERCE      FAIR      61  58  90 CALM      30.01R                  
STUART         FAIR      72  64  78 SE8       30.02S                  

STATION/POSITION SKY/WX   TEMP    WIND        PRES    WAVE   SWELL
                          AIR SEA DIR/SP/G            HT/PER HT/PER
                          (F)     (DEG/KT/KT) (MB)    (FT/S) (FT/S)
28.5N   80.2W              76     150/ 12/ 16 1016.4F
28.9N   78.5W              74 77  120/ 16/ 19 1017.8R   4/ 8   3/ 8
TRIDENT PIER               74 77  120/  7/ 11 1017.0F
28.4N   80.5W                 77                N/A     3/ 9
27.5N   80.2W                 76                N/A     3/ 9

$$
FLZ050-056-061-142-242-148-248-149-249-151-251-155-255-
160-260-181200-
WEST CENTRAL FLORIDA
  
CITY           SKY/WX    TMP DP  RH WIND       PRES   REMARKS
CRYSTAL RIVER  FAIR      61  59  94 E3        29.99S                  
INVERNESS      FAIR      57  57 100 CALM      30.00R FOG              
BROOKSVILLE    FAIR      63  59  87 SE6       29.99S                  
CLEARWATER AIR FAIR      68  63  83 SE8       29.98R                  
ST PETE CLEARW FAIR      68  63  84 SE7       29.98S                  
TAMPA INTL     MOCLDY    70  62  76 SE6       29.99S                  
TAMPA EXEC     MOCLDY    64  61  88 CALM      29.99S                  
PLANT CITY     FAIR      64  64 100 SE3       30.01S                  
MACDILL AFB    FAIR      69  62  81 SE8       29.97F                  
PETER O KNIGHT MOCLDY    70  64  83 SE9       29.99S                  
ST PETERSBURG  FAIR      71  65  81 SE17      29.95F                  
SARASOTA       FAIR      65  61  87 E8        29.96S                  
VENICE         FAIR      66  63  88 E8        29.98S                  

STATION/POSITION SKY/WX   TEMP    WIND        PRES    WAVE   SWELL
                          AIR SEA DIR/SP/G            HT/PER HT/PER
                          (F)     (DEG/KT/KT) (MB)    (FT/S) (FT/S)
27.3N   84.2W                 75                N/A     2/ 3
CLEARWATER BEACH           70 77  110/  7/ 10 1015.0F
MIDDLE TAMPA BAY           67     140/ 12/ 15 1015.0F
VENICE                     66 78   90/  6/  7 1015.0S

$$
FLZ066-069-070-075>078-162-262-165-265-181200-
SOUTHWEST FLORIDA AND KEYS
  
CITY           SKY/WX    TMP DP  RH WIND       PRES   REMARKS
PUNTA GORDA    FAIR      61  59  93 E7        30.00S                  
FT MYERS       FAIR      65  62  90 E6        29.97S                  
SOUTHWEST INTL FAIR      65  61  87 E10       29.98S                  
NAPLES         FAIR      67  64  90 E8        29.98S                  
MARCO ISLAND   MOCLDY    65  62  90 NE5       29.99S                  
IMMOKALEE      FAIR      64  61  88 E3        29.97S                  
MARATHON       MOCLDY    81  72  74 SE8       29.96R                  
KEY WEST NAS   FAIR      79  72  79 E12       29.96R                  
KEY WEST INTL  FAIR      79  72  79 E13       29.96R                  

STATION/POSITION SKY/WX   TEMP    WIND        PRES    WAVE   SWELL
                          AIR SEA DIR/SP/G            HT/PER HT/PER
                          (F)     (DEG/KT/KT) (MB)    (FT/S) (FT/S)
NAPLES                     68 79   80/  6/  9 1015.2R
DRY TORTUGAS               78     130/ 16/ 17 1013.9R
SAND KEY                   78                 1014.3R
SOMBRERO KEY               79                 1013.8R

$$
FLZ067-068-071>074-168-172>174-181200-
SOUTHEAST FLORIDA 
  
CITY           SKY/WX    TMP DP  RH WIND       PRES   REMARKS
W PALM BEACH   FAIR      75  68  78 E15       30.00R                  
BOCA RATON     MOCLDY    77  70  78 SE12      29.99                   
FT LAUDER-EXEC FAIR      77  70  79 E13       29.99R                  
FT LAUDERDALE  FAIR      78  70  76 SE13      29.98R                  
POMPANO BEACH  FAIR      78  70  76 SE12      29.99R                  
PEMBROKE PINES FAIR      76  70  82 E8        30.00R                  
OPA LOCKA      FAIR      77  70  79 SE10      29.99R                  
MIAMI          MOCLDY    77  71  82 E12       29.99R                  
WEST KENDALL   FAIR      77  71  82 E10       29.98R                  
HOMESTEAD      FAIR      77  71  83 E8        29.98R                  

STATION/POSITION SKY/WX   TEMP    WIND        PRES    WAVE   SWELL
                          AIR SEA DIR/SP/G            HT/PER HT/PER
                          (F)     (DEG/KT/KT) (MB)    (FT/S) (FT/S)
VIRGINIA KEY               78 81   90/ 11/ 13 1014.7R
LAKE WORTH                 76 78   80/ 13/ 15 1016.9R
SETTLEMENT POINT           75      90/ 12/ 13 1016.8R

$$